St. Cloud, MN

4:20 PM CDT on October 13, 2019 (GMT -0500)
Saint Cloud Regional

Weather History for KSTC - May, 2019

Change the Weather History Date:

Friday, May 31, 2019

  Actual Average Record
Temperature  
Mean Temperature 70 °F 61 °F  
Max Temperature 88 °F 73 °F 105 °F (1934)
Min Temperature 53 °F 49 °F 32 °F (1908)
Degree Days  
Heating Degree Days 0 6  
Month to date heating degree days 409 288  
Since 1 July heating degree days 9207 8454  
Cooling Degree Days 6 1  
Month to date cooling degree days 7 23  
Year to date cooling degree days 7 25  
Growing Degree Days 20 (Base 50)    
Moisture  
Dew Point 52 °F    
Average Humidity 54    
Maximum Humidity 93    
Minimum Humidity 26    
Precipitation  
Precipitation 0.07 in 0.10 in 1.68 in (2014)
Month to date precipitation 6.40 2.95  
Year to date precipitation 13.75 8.31  
Snow  
Snow 0.00 in 0.00 in 0.00 in ()
Month to date snowfall 0.4 T  
Since 1 July snowfall 68.9 45.7  
Snow Depth 0.00 in    
Sea Level Pressure  
Sea Level Pressure 29.77 in    
Wind  
Wind Speed 6 mph ()    
Max Wind Speed 22 mph    
Max Gust Speed 31 mph    
Visibility 9.8 miles    
Events Rain , Thunderstorm    
T = Trace of Precipitation, MM = Missing Value Source: Averaged Metar Reports

Daily Weather History Graph

Daily Weather History Graph

Search for Another Location

Airport or City:

Astronomy

May. 31, 2019 Rise Set
Actual Time 5:31 AM CDT 8:56 PM CDT
Civil Twilight 4:54 AM CDT 9:33 PM CDT
Nautical Twilight 4:06 AM CDT 10:22 PM CDT
Astronomical Twilight 3:04 AM CDT 11:24 PM CDT
Moon 4:18 AM CDT (5/31) 5:56 PM CDT (5/31)
Length of Visible Light 16h 39m
Length of Day
15h 25m
Waning Crescent, 8% of the Moon is Illuminated
May 31
Waning Crescent
Jun 3
New
Jun 10
First Quarter
Jun 17
Full
Jun 25
Last Quarter

Hourly Weather History & Observations

Time (CDT) Temp. Heat Index Dew Point Humidity Pressure Visibility Wind Dir Wind Speed Gust Speed Precip Events Conditions
12:53 AM 66.9 °F - 52.0 °F 59% 29.75 in 10.0 mi SSW 6.9 mph - N/A   Clear
1:53 AM 63.0 °F - 52.0 °F 67% 29.75 in 10.0 mi Calm Calm - N/A   Clear
2:53 AM 55.9 °F - 53.1 °F 90% 29.75 in 10.0 mi South 3.5 mph - N/A   Clear
3:53 AM 55.9 °F - 53.1 °F 90% 29.76 in 10.0 mi Calm Calm - N/A   Clear
4:53 AM 55.0 °F - 52.0 °F 89% 29.77 in 9.0 mi Calm Calm - N/A   Clear
5:53 AM 55.0 °F - 53.1 °F 93% 29.78 in 7.0 mi Calm Calm - N/A   Clear
6:53 AM 57.9 °F - 54.0 °F 87% 29.79 in 10.0 mi Calm Calm - N/A   Clear
7:53 AM 64.9 °F - 55.0 °F 70% 29.79 in 10.0 mi Calm Calm - N/A   Clear
8:53 AM 73.0 °F - 52.0 °F 48% 29.79 in 10.0 mi West 5.8 mph - N/A   Clear
9:53 AM 79.0 °F - 51.1 °F 38% 29.80 in 10.0 mi WNW 12.7 mph 20.7 mph N/A   Clear
10:53 AM 81.0 °F - 52.0 °F 36% 29.79 in 10.0 mi WNW 11.5 mph - N/A   Clear
11:53 AM 84.9 °F - 51.1 °F 31% 29.78 in 10.0 mi West 13.8 mph - N/A   Clear
12:53 PM 87.1 °F - 48.9 °F 27% 29.77 in 10.0 mi West 13.8 mph 25.3 mph N/A   Clear
1:53 PM 88.0 °F - 50.0 °F 27% 29.77 in 10.0 mi West 15.0 mph 25.3 mph N/A   Clear
2:53 PM 87.1 °F - 48.9 °F 27% 29.76 in 10.0 mi West 18.4 mph - N/A   Clear
3:53 PM 88.0 °F - 48.9 °F 26% 29.75 in 10.0 mi West 16.1 mph - N/A   Clear
4:53 PM 87.1 °F - 50.0 °F 28% 29.74 in 10.0 mi WNW 15.0 mph 21.9 mph N/A   Clear
5:53 PM 86.0 °F - 50.0 °F 29% 29.74 in 10.0 mi WNW 12.7 mph - N/A   Clear
6:53 PM 82.0 °F 81.3 °F 54.0 °F 38% 29.73 in 10.0 mi NW 8.1 mph - N/A   Clear
7:53 PM 79.0 °F - 51.1 °F 38% 29.73 in 10.0 mi NNW 6.9 mph - N/A   Clear
8:53 PM 73.9 °F - 53.1 °F 48% 29.74 in 10.0 mi WNW 5.8 mph - N/A   Scattered Clouds
9:42 PM 71.1 °F - 48.9 °F 45% 29.76 in 10.0 mi ENE 8.1 mph 23.0 mph N/A Thunderstorm Scattered Clouds
9:53 PM 69.1 °F - 48.9 °F 49% 29.76 in 10.0 mi ENE 10.4 mph - N/A   Partly Cloudy
10:06 PM 68.0 °F - 48.9 °F 50% 29.76 in 10.0 mi ENE 8.1 mph - N/A Thunderstorm Scattered Clouds
10:31 PM 64.0 °F - 52.0 °F 65% 29.78 in 7.0 mi NE 5.8 mph - 0.03 in Rain , Thunderstorm Thunderstorms and Rain
10:53 PM 61.0 °F - 54.0 °F 78% 29.80 in 10.0 mi NE 6.9 mph - 0.07 in Rain , Thunderstorm Light Thunderstorms and Rain
11:07 PM 60.1 °F - 53.1 °F 78% 29.79 in 10.0 mi Variable 4.6 mph - 0.00 in   Partly Cloudy
11:53 PM 59.0 °F - 51.1 °F 75% 29.83 in 10.0 mi North 5.8 mph - 0.00 in   Partly Cloudy